Weather in Khabarovsk

Russia / Khabarovsk Krai     48°28′48″N   135°04′18″E
temp.,
°C
wind,
m/s
gust,
m/s
humid.,
%
clouds,
%
prec.,
mm/h
press.,
hPa
HPBL,
m
26 february, fri
fri2601:00−24sw12909 0.0 102520
04:00−24ssw129112 0.0 102520
07:00−23sw229198 0.0 102624
10:00−21sw239299 0.0 1027164
13:00−17wsw348991 0.0 1028353
16:00−16w469087 0.0 1028425
19:00−19sw339426 0.0 103124
22:00−21sw339113 0.0 103225
27 february, sat
sat2701:00−21sw33890 0.0 103428
04:00−22ssw23900 0.0 103528
07:00−22s23920 0.0 103520
10:00−19ssw12906 0.0 1035109
13:00−13sw128350 0.0 1033337
16:00−11sse018075 0.0 1029363
19:00−12ese2388100 0.0 102621
22:00−12s1189100 0.0 102421
28 february, sun
sun2801:00−11nnw0189100 0.0 102121
04:00−8sw1797100 1.6 1018333
07:00−6sw41296100 2.4 1017728
10:00−7w61093100 3.4 1017445
13:00−8wsw6109099 0.0 1018414
16:00−6w7108499 0.0 1018880
19:00−10w61180100 0.0 1021272
22:00−14w6157597 0.0 1024441
1 march, mon
mon101:00−18w6157716 0.0 1025434
04:00−20wsw613818 0.0 1028299
07:00−21wsw815790 0.0 1030345
10:00−19w915700 0.0 1031606
13:00−16w812660 0.0 1031989
16:00−14w710670 0.0 10311154
19:00−16wsw5118257 0.0 1032272
22:00−21wsw448663 0.0 103261
2 march, tue
tue201:00−23wsw34879 0.0 103232
04:00−25wsw348610 0.0 103342
07:00−25wsw46790 0.0 103379
10:00−21w610800 0.0 1033294
13:00−18w58750 0.0 1032472
16:00−16w36750 0.0 1030444
19:00−20sw33850 0.0 103024
22:00−22sw23790 0.0 103221